Location: Nelson
(41.2830°S, 173.2830°E)
Time: 11:37:21
(UTC+13:00)

ISS - Visible Passes

Search period start: 22 October 2019 00:00
Search period end: 01 November 2019 00:00
Orbit: 411 x 421 km, 51.6° (Epoch: 21 October)

Date Brightness Start Highest point End Pass type
(mag) Time Alt. Az. Time Alt. Az. Time Alt. Az.
22 Oct -1.3 21:47:18 10° WSW 21:50:05 23° SSW 21:52:54 10° SE visible
22 Oct -0.2 23:25:46 10° SW 23:26:03 11° SSW 23:26:03 11° SSW visible
23 Oct -1.8 20:58:17 10° W 21:01:21 30° SSW 21:04:26 10° SE visible
23 Oct -0.9 22:36:51 10° SW 22:38:54 15° S 22:39:41 14° S visible
24 Oct -0.9 21:47:48 10° SW 21:50:03 16° S 21:52:19 10° SSE visible
24 Oct -0.3 23:25:32 10° SSW 23:26:02 12° SSW 23:26:02 12° SSW visible
25 Oct -1.1 20:58:41 10° WSW 21:01:13 19° SSW 21:03:46 10° SSE visible
25 Oct -1.0 22:36:53 10° SSW 22:38:57 15° S 22:39:23 15° SSE visible
26 Oct -0.9 21:48:04 10° SW 21:50:03 14° S 21:52:02 10° SE visible
26 Oct -0.4 23:24:54 10° SW 23:25:33 13° SSW 23:25:33 13° SSW visible
27 Oct -0.9 20:59:05 10° SW 21:01:09 15° S 21:03:14 10° SSE visible
27 Oct -1.3 22:36:23 10° SSW 22:38:46 18° SSE 22:38:46 18° SSE visible
28 Oct -1.1 21:47:48 10° SSW 21:50:01 16° S 21:51:57 11° SE visible
28 Oct -0.6 23:24:09 10° SW 23:24:50 15° SW 23:24:50 15° SW visible
29 Oct -1.0 20:59:05 10° SSW 21:01:06 15° S 21:03:07 10° SE visible
29 Oct -1.8 22:35:38 10° SW 22:38:01 27° S 22:38:01 27° S visible
30 Oct -1.7 21:47:06 10° SW 21:49:51 22° SSE 21:51:10 18° SE visible
30 Oct -0.6 23:23:29 10° WSW 23:24:03 14° WSW 23:24:03 14° WSW visible
31 Oct -1.4 20:58:32 10° SSW 21:00:58 18° SSE 21:03:24 10° ESE visible
31 Oct -2.4 22:34:50 10° SW 22:37:13 39° SSW 22:37:13 39° SSW visible
